966  
NZUS93 KARX 261559  
HRRWXR  
 
CURRENT HOURLY OBSERVATIONS ACROSS  
MUCH OF THE UPPER MISSISSIPPI VALLEY  
NATIONAL WEATHER SERVICE LA CROSSE WI  
1100 AM CDT TUE JUL 26 2016  
 
   
..SOUTHEAST MINNESOTA
 
 
 
CITY SKY/WX TMP DP RH WIND PRES REMARKS  
ROCHESTER SUNNY 81 69 67 VRB7 30.11S  
ROCHESTER/MAYO FAIR 80 65 59 SW8 30.10S  
WINONA SUNNY 81 64 57 W5 30.07S  
AUSTIN SUNNY 79 66 65 S5 30.10S  
ALBERT LEA SUNNY 81 68 65 SW3 30.10S  
DODGE CENTER SUNNY 82 68 61 SW7 30.10S  
PRESTON SUNNY 79 65 61 W5 30.12S  
OWATONNA SUNNY 82 66 57 SW3 30.08S  
FARIBAULT SUNNY 82 70 65 S6 30.08S  

 
   
..ELSEWHERE IN MINNESOTA
 
 
 
CITY SKY/WX TMP DP RH WIND PRES REMARKS  
MINNEAPOLIS MOSUNNY 84 64 50 W10G18 30.05S  
INTNL FALLS CLOUDY 79 63 57 N3 29.97F  
DULUTH CLOUDY 75 69 81 W7 29.98F  
RED WING MOSUNNY 82 66 57 W5 30.06R  
REDWOOD FALLS SUNNY 82 64 54 SW8 30.05R  
MANKATO SUNNY 82 64 54 SW8 30.08R  
WORTHINGTON SUNNY 80 68 66 SW10 30.10R  
FAIRMONT SUNNY 81 55 41 S7 30.08R  

 
   
..SOUTHWEST WISCONSIN
 
 
 
CITY SKY/WX TMP DP RH WIND PRES REMARKS  
LA CROSSE SUNNY 82 68 62 CALM 30.07S  
PRAIRIE DU CHI SUNNY 80 67 64 CALM 30.09S  
BOSCOBEL SUNNY 83 65 54 CALM 30.09S  
LONE ROCK NOT AVBL  
PLATTEVILLE SUNNY 80 67 64 CALM 30.11R  
FORT MC COY SUNNY 81 67 61 SW5 30.08S  
MAUSTON-NEW LI SUNNY 81 66 61 CALM 30.07S  
VIROQUA FAIR 80 61 51 CALM 30.11R  
WIS DELLS NOT AVBL  

 
   
..ELSEWHERE IN WISCONSIN
 
 
 
CITY SKY/WX TMP DP RH WIND PRES REMARKS  
MILWAUKEE MOSUNNY 83 60 45 E6 30.07S  
MADISON MOSUNNY 83 62 49 NE3 30.08S  
GREEN BAY SUNNY 82 71 69 SW7 30.05S  
EAU CLAIRE NOT AVBL  
BLACK RVR FLS FAIR 81 66 60 W3 30.07S  
MEDFORD MOSUNNY 78 68 70 SW7 30.08S  
WAUSAU SUNNY 82 64 54 W9 30.05F  
WIS RAPIDS SUNNY 84 64 50 SW9 30.09R  
MARSHFIELD SUNNY 82 66 58 SW7 30.08R  
RICE LAKE PTSUNNY 78 68 72 S6 30.06F  

 
   
..NORTHEAST IOWA
 
 
 
CITY SKY/WX TMP DP RH WIND PRES REMARKS  
WATERLOO SUNNY 81 67 62 NE5 30.08F  
DUBUQUE SUNNY 81 66 60 CALM 30.11S  
DECORAH SUNNY 79 68 69 CALM 30.10S  
MASON CITY SUNNY 81 66 60 SW6 30.11F  
CHARLES CITY SUNNY 81 64 57 CALM 30.11S  
OELWEIN SUNNY 81 66 61 CALM 30.10F  

 
   
..ELSEWHERE IN IOWA
 
 
 
CITY SKY/WX TMP DP RH WIND PRES REMARKS  
DES MOINES MOSUNNY 83 62 49 E8 30.08S  
IOWA CITY SUNNY 81 67 62 S6 30.10R  
FORT DODGE SUNNY 81 68 65 S6 30.11R  
MARSHALLTOWN SUNNY 80 67 64 E8 30.09S  
CEDAR RAPIDS SUNNY 80 68 66 E6 30.09S  

 
   
..NORTHERN ILLINOIS
 
 
 
CITY SKY/WX TMP DP RH WIND PRES REMARKS  
CHICAGO-OHARE MOSUNNY 82 61 48 S5 30.06S  
CHICAGO-MIDWAY PTSUNNY 84 64 50 E6 30.06S  
MOLINE SUNNY 83 66 56 E3 30.07S  
ROCKFORD MOSUNNY 83 61 47 E6 30.10R  
PEORIA MOSUNNY 83 67 58 CALM 30.05F  

 
 
NOTE: "FAIR" INDICATES FEW OR NO CLOUDS BELOW 12,000 FEET WITH NO  
SIGNIFICANT WEATHER AND/OR OBSTRUCTIONS TO VISIBILITY. WIND  
SPEEDS ARE IN MILES-PER-HOUR.  
 
 
CLICK HERE TO GO TO PREVIOUS BULLETINS.

The Nexlab WI Page
The Nexlab IA Page
The Nexlab MN Page Main Text Page